Skip Page Navigation
NASA JPL Caltech
NASA Logo - Jet Propulsion Laboratory + View the NASA Portal
+ Center for Near-Earth Object Studies
JPL Home Earth Solar System Stars & Galaxies Technology
JPL Solar System Dynamics
BODIES ORBITS EPHEMERIDES TOOLS PHYSICAL DATA DISCOVERY FAQ SITE MAP
IMPORTANT: The SSD Announcement email list is now available. Major changes are coming in the near future, including possible hostname and/or URL changes. To be notified of such changes, subscribe to this email list.

Please visit this page for more details.


JPL Small-Body Database Browser
Search: [ help ]  
201105 (2002 GH149)
Classification: Main-belt Asteroid          SPK-ID: 2201105
Ephemeris | Orbit Diagram | Orbital Elements | Mission Design | Physical Parameters | Discovery Circumstances ]

[ show orbit diagram ]
Orbital Elements at Epoch 2458600.5 (2019-Apr-27.0) TDB
Reference: JPL 10 (heliocentric ecliptic J2000)
 Element Value Uncertainty (1-sigma)   Units 
e .02449588690320908 1.0891e-07  
a 2.600962437120263 2.4255e-08 au
q 2.53724955542107 2.8061e-07 au
i 5.135654353001705 9.3871e-06 deg
node 204.6860299509297 6.9086e-05 deg
peri 29.44250387395956 0.000153 deg
M 346.6213699042618 0.00013016 deg
tp 2458657.438850148623
(2019-Jun-22.93885015)
0.0005536 TDB
period 1532.143867258422
4.19
2.1432e-05
5.868e-08
d
yr
n .2349648800567108 3.2867e-09 deg/d
Q 2.664675318819456 2.4849e-08 au
  Orbit Determination Parameters
   # obs. used (total)      195  
   data-arc span      10071 days (27.57 yr)  
   first obs. used      1991-10-10  
   last obs. used      2019-05-07  
   planetary ephem.      DE431  
   SB-pert. ephem.      SB431-N16  
   condition code      0  
   norm. resid. RMS      .59111  
   source      ORB  
   producer      Otto Matic  
   solution date      2019-May-30 08:14:31  

Additional Information
 Earth MOID = 1.52755 au 
 Jupiter MOID = 2.30576 au 
 T_jup = 3.408 
[ show covariance matrix ]

Ephemeris | Orbit Diagram | Orbital Elements | Mission Design | Physical Parameters | Discovery Circumstances ]

Physical Parameter Table
Parameter Symbol Value Units Sigma Reference Notes
absolute magnitude H 16.7   n/a MPO433318  

201105 (2002 GH149)          Discovered 2002-Apr-14 by LINEAR at Socorro
Reference: 20081212/Numbers.arcLast Updated: 2008-12-12

Alternate Designations
 2002 GH149 = 1991 TG10 = 2003 NT10 
Ephemeris | Orbit Diagram | Orbital Elements | Mission Design | Physical Parameters | Discovery Circumstances ]
ABOUT SSD CREDITS/AWARDS PRIVACY/COPYRIGHT GLOSSARY LINKS
FirstGov 2020-Jan-26 06:39 UT
(server date/time)  
NASA Home Page
Site Manager:   Ryan S. Park
Webmaster  Alan B. Chamberlin